Location: Baia Mare
(47.6567°N, 23.5850°E)
Time: 09:18:38
(UTC+03:00)

ISS - Pass Details

Date: 01 October 2018
Orbit: 403 x 408 km, 51.6° (Epoch: 21 October)

Event Time Altitude Azimuth Distance (km) Brightness Sun altitude
Rises 20:02:55 0° 274° (W) 2,337 2.3 -10.5°
Reaches altitude 10° 20:05:04 10° 282° (WNW) 1,476 0.6 -10.9°
Maximum altitude 20:08:14 41° 354° (N) 612 -2.8 -11.4°
Enters shadow 20:10:43 15° 62° (ENE) 1,218 -1.9 -11.8°
